Wheeler Observed Data For Previous 48 Hours

Caption
Day and Hour Reservoir Elevation (behind dam)* Tailwater Elevation (below dam)* Average Hourly Discharge*
6/20/2018 1 AM CDT 555.69 506.56 23,052
6/20/2018 2 AM CDT 555.69 506.56 22,718
6/20/2018 3 AM CDT 555.69 506.57 22,509
6/20/2018 4 AM CDT 555.69 506.60 22,430
6/20/2018 5 AM CDT 555.69 506.58 23,052
6/20/2018 6 AM CDT 555.70 506.62 23,257
6/20/2018 7 AM CDT 555.70 506.64 23,222
6/20/2018 8 AM CDT 555.70 506.64 23,246
6/20/2018 9 AM CDT 555.70 506.67 23,100
6/20/2018 10 AM CDT 555.70 506.73 23,108
6/20/2018 11 AM CDT 555.70 506.64 23,128
6/20/2018 12 PM CDT 555.70 506.65 23,021
6/20/2018 1 PM CDT 555.70 506.65 23,192
6/20/2018 2 PM CDT 555.70 506.63 23,114
6/20/2018 3 PM CDT 555.71 506.61 23,088
6/20/2018 4 PM CDT 555.71 506.59 23,021
6/20/2018 5 PM CDT 555.71 506.58 23,243
6/20/2018 6 PM CDT 555.71 506.53 23,392
6/20/2018 7 PM CDT 555.71 506.52 23,258
6/20/2018 8 PM CDT 555.71 506.54 23,299
6/20/2018 9 PM CDT 555.71 506.51 23,345
6/20/2018 10 PM CDT 555.71 506.48 23,225
6/20/2018 11 PM CDT 555.72 506.50 23,210
6/21/2018 12 AM CDT 555.71 506.52 23,225
6/21/2018 1 AM CDT 555.71 506.46 29,419
6/21/2018 2 AM CDT 555.71 506.47 30,181
6/21/2018 3 AM CDT 555.71 506.53 30,192
6/21/2018 4 AM CDT 555.71 506.54 30,300
6/21/2018 5 AM CDT 555.71 506.52 30,315
6/21/2018 6 AM CDT 555.71 506.56 30,243
6/21/2018 7 AM CDT 555.71 506.58 30,247
6/21/2018 8 AM CDT 555.71 506.72 30,046
6/21/2018 9 AM CDT 555.71 506.72 29,119
6/21/2018 10 AM CDT 555.71 506.76 29,072
6/21/2018 11 AM CDT 555.71 506.73 28,993
6/21/2018 12 PM CDT 555.71 506.74 29,075
6/21/2018 1 PM CDT 555.71 506.74 29,008
6/21/2018 2 PM CDT 555.71 506.76 29,076
6/21/2018 3 PM CDT 555.71 506.75 29,077
6/21/2018 4 PM CDT 555.71 506.76 29,135
6/21/2018 5 PM CDT 555.71 506.73 29,123
6/21/2018 6 PM CDT 555.71 506.75 29,123
6/21/2018 7 PM CDT 555.71 506.72 29,036

Elevations are in feet above sea level. Discharges are in cubic feet per second and are reported at the end of the hour.